Location: LDNL
(36.4545°S, 141.6685°E)
Time: 05:49:43
(UTC+10:00)

S-56A Canister/Altair - Visible Passes

Search period start: 10 August 2022 00:00
Search period end: 20 August 2022 00:00
Orbit: 635 x 2498 km, 38.9° (Epoch: 08 August)

Date Brightness Start Highest point End Pass type
(mag) Time Alt. Az. Time Alt. Az. Time Alt. Az.
10 Aug 10.4 04:02:49 10° NE 04:02:49 10° NE 04:03:29 10° NE visible
10 Aug 8.5 06:00:50 10° NW 06:06:18 41° NNE 06:10:39 10° E visible
11 Aug 8.7 05:29:58 18° NNW 05:33:45 37° NNE 05:38:13 10° E visible
12 Aug 8.9 04:59:31 29° N 05:01:11 34° NNE 05:05:45 10° E visible
13 Aug 9.2 04:28:57 31° NE 04:28:57 31° NE 04:33:18 10° E visible
13 Aug 7.4 06:26:27 10° WNW 06:32:21 87° NNE 06:36:58 10° ESE visible
14 Aug 9.8 03:58:18 22° ENE 03:58:18 22° ENE 04:00:49 10° E visible
14 Aug 7.6 05:55:44 21° WNW 05:59:49 80° NNE 06:04:34 10° ESE visible
15 Aug 10.5 03:27:33 13° E 03:27:33 13° E 03:28:18 10° E visible
15 Aug 7.8 05:24:59 40° NW 05:27:14 73° NNE 05:32:12 10° ESE visible
16 Aug 8.0 04:54:11 65° N 04:54:38 67° NNE 04:59:51 10° ESE visible
17 Aug 8.6 04:23:19 50° ENE 04:23:19 50° ENE 04:27:29 10° ESE visible
17 Aug 7.6 06:20:45 14° W 06:26:02 70° S 06:30:44 10° ESE visible
18 Aug 9.6 03:52:24 30° E 03:52:24 30° E 03:55:07 10° ESE visible
18 Aug 7.7 05:49:49 27° W 05:53:26 74° S 05:58:21 10° ESE visible
19 Aug 10.3 03:21:27 17° E 03:21:27 17° E 03:22:43 10° E visible
19 Aug 7.8 05:18:52 47° W 05:20:48 78° SSW 05:26:00 10° ESE visible
